DW1024 Weather Reports


time (UTC)temp
C
wind
direction
speed
KPH
gust
KPH
rain 1hr
cm
rain 24hr
cm
rain mn
cm
humidity
%
barometer
mb
20260503024830 7 199 0.0 0.0 0.00 0.00 0.00 74 1017.1
20260503023334 8 199 0.0 0.0 0.00 0.00 0.00 73 1017.2
20260503021830 8 199 0.0 0.0 0.00 0.00 0.00 72 1017.2
20260503020331 8 199 0.0 0.0 0.00 0.00 0.00 71 1017.3
20260503014831 9 199 0.0 0.0 0.00 0.00 0.00 69 1017.2
20260503011832 10 199 0.0 0.0 0.00 0.00 0.00 67 1017.2
20260503001823 11 199 0.0 3.2 0.00 0.00 0.00 65 1017.2
20260503000323 11 199 0.0 1.6 0.00 0.00 0.00 64 1017.4
20260502231820 11 190 1.6 8.0 0.00 0.00 0.00 65 1017.7
20260502230319 11 141 0.0 3.2 0.00 0.00 0.00 65 1017.9
20260502224824 11 55 0.0 0.0 0.00 0.00 0.00 64 1018.2
20260502223318 11 54 0.0 0.0 0.00 0.00 0.00 62 1018.2
20260502220318 12 55 0.0 0.0 0.00 0.00 0.00 61 1018.3
20260502214825 12 55 0.0 0.0 0.00 0.00 0.00 60 1018.3
20260502213317 13 55 0.0 0.0 0.00 0.00 0.00 60 1018.5
20260502210317 13 54 0.0 0.0 0.00 0.00 0.00 57 1018.6
20260502203319 14 55 0.0 0.0 0.00 0.00 0.00 55 1018.6
20260502200319 16 55 0.0 0.0 0.00 0.00 0.00 50 1018.8
20260502194817 17 55 0.0 0.0 0.00 0.00 0.00 47 1018.9
20260502193318 18 55 0.0 0.0 0.00 0.00 0.00 44 1018.7
20260502191817 20 55 0.0 4.8 0.00 0.00 0.00 40 1018.7
20260502190318 20 55 1.6 6.4 0.00 0.00 0.00 37 1018.7
20260502184813 21 55 3.2 6.4 0.00 0.00 0.00 36 1018.6
20260502183316 21 65 3.2 6.4 0.00 0.00 0.00 35 1018.5
20260502181814 21 50 3.2 8.0 0.00 0.00 0.00 34 1018.5
20260502180314 22 48 3.2 8.0 0.00 0.00 0.00 33 1018.4
20260502170315 23 69 8.0 14.5 0.00 0.00 0.00 31 1018.6
20260502161813 24 57 8.0 17.7 0.00 0.00 0.00 28 1018.7
20260502160315 25 34 4.8 12.9 0.00 0.00 0.00 29 1018.9
20260502151815 25 59 4.8 16.1 0.00 0.00 0.00 30 1019.3
20260502150312 25 75 3.2 11.3 0.00 0.00 0.00 31 1019.4
20260502130307 26 97 3.2 14.5 0.00 0.00 0.00 30 1020.9
20260502121810 26 217 3.2 9.7 0.00 0.00 0.00 29 1021.5
20260502120305 25 184 4.8 14.5 0.00 0.00 0.00 33 1021.7
20260502114806 25 30 3.2 12.9 0.00 0.00 0.00 30 1022.0
20260502113311 25 242 3.2 12.9 0.00 0.00 0.00 32 1022.0
20260502111808 25 183 3.2 11.3 0.00 0.00 0.00 31 1022.2
20260502110305 25 115 1.6 11.3 0.00 0.00 0.00 33 1022.4
20260502104806 23 80 1.6 11.3 0.00 0.00 0.00 33 1022.6
20260502103309 23 59 3.2 8.0 0.00 0.00 0.00 35 1022.6
20260502101805 23 44 1.6 11.3 0.00 0.00 0.00 36 1022.9
20260502100306 23 255 1.6 9.7 0.00 0.00 0.00 37 1023.2
20260502090305 21 34 1.6 6.4 0.00 0.00 0.00 40 1023.9
20260502071532 15 165 0.0 3.2 0.00 0.00 0.00 56 1024.3
20260502064801 13 165 0.0 6.4 0.00 0.00 0.00 62 1024.3
20260502063300 11 165 1.6 3.2 0.00 0.00 0.00 69 1024.4
20260502061756 9 165 0.0 3.2 0.00 0.00 0.00 77 1024.3
20260502060300 6 195 0.0 3.2 0.00 0.00 0.00 89 1024.2
20260502054758 4 194 1.6 4.8 0.00 0.00 0.00 90 1024.2
20260502050256 2 126 0.0 1.6 0.00 0.00 0.00 88 1024.2
20260502044756 2 49 0.0 0.0 0.00 0.00 0.00 87 1024.1
20260502043255 2 49 0.0 0.0 0.00 0.00 0.00 86 1024.1
20260502041751 2 49 0.0 0.0 0.00 0.00 0.00 85 1024.2
20260502040251 2 49 0.0 0.0 0.00 0.00 0.00 85 1024.1
20260502034752 2 49 0.0 0.0 0.00 0.00 0.00 85 1024.2
20260502033254 2 49 0.0 0.0 0.00 0.00 0.00 83 1024.1
20260502031748 2 49 0.0 0.0 0.00 0.00 0.00 83 1024.2
20260502030246 2 49 0.0 0.0 0.00 0.00 0.00 83 1024.2